[[{"header":{"parameterUnit":"m.s-1","parameterCategory":1,"la1":30.2991,"la2":30.254,"lo1":-89.0895,"lo2":-89.0444,"dy":0.0017,"dx":0.0017,"nx":28,"ny":28,"refTime":"2023-07-17T21:00:00:Z","depth":0,"parameterNumber":2,"parameterNumberName":"U-component_of_WINDS"},"data":[0,0,0,0,0,0,0,0,0,0,0,0,0,0,0,0,0,0,0,0,0,0,0,0,0,0,0,0,0,0,0,0,0,0,0,0,0,0,0,0,0,0,0,0,0,0,0,0,0,0,0,0,0,0,0,0,0,0,1.4984,1.4982,0,1.4857,1.4856,1.4854,1.4725,1.4723,1.4721,1.4719,1.4585,1.4583,1.4581,0,0,0,0,0,0,0,0,0,0,0,0,0,1.5111,1.5109,1.4984,1.4982,1.4981,1.4857,1.4856,1.4854,1.4725,1.4723,1.4721,1.4719,1.4586,1.4584,1.4581,0,0,0,0,0,0,0,0,0,0,0,0,0,1.5027,1.5108,1.4984,1.4902,1.4893,1.4858,1.4856,1.4853,1.4725,1.4723,1.472,1.4718,1.4587,1.4584,1.4581,1.4616,0,0,1.4572,1.4571,0,0,0,0,0,0,0,0,1.5032,1.5022,1.4915,1.4907,1.4897,1.4804,1.4851,1.4774,1.4726,1.4789,1.4719,1.4716,1.466,1.4651,1.4633,1.4609,1.4604,1.4572,1.457,1.4569,1.4568,0,0,0,0,0,0,0,1.5038,1.5027,1.4933,1.4914,1.4903,1.487,1.4855,1.4836,1.474,1.4783,1.4773,1.4761,1.4654,1.4636,1.4629,1.4602,1.4572,1.4569,1.4568,1.4566,1.4602,1.4604,0,0,0,0,0,0,1.5057,1.5033,1.4937,1.493,1.496,1.487,1.4853,1.4837,1.474,1.4723,1.4763,1.4755,1.4642,1.4632,1.4623,1.4659,1.4569,1.4566,1.4564,1.4599,1.4602,1.4605,0,0,0,0,0,0,1.506,1.5049,1.4943,1.4979,1.4962,1.487,1.4853,1.4836,1.4817,1.4725,1.4707,1.4762,1.464,1.4627,1.4619,1.4652,1.4565,1.4562,1.4596,1.46,1.4604,1.473,0,0,0,0,0,0,1.5064,1.5051,1.5064,1.498,1.4961,1.4942,1.4855,1.4835,1.4813,1.4801,1.4719,1.4703,1.4637,1.4624,1.4616,1.4647,1.456,1.4592,1.4598,1.4602,1.4722,1.4737,1.4751,0,0,0,0,0,1.5069,1.5103,1.5066,1.5055,1.4976,1.4944,1.4933,1.4858,1.4816,1.4828,1.4769,1.4706,1.465,1.4625,1.4614,1.4644,1.459,1.4596,1.4602,1.4716,1.4734,1.475,0,0,0,0,0,0,1.5192,1.5091,1.5048,1.5056,1.501,1.4922,1.4935,1.488,1.4843,1.4834,1.474,1.4722,1.4725,1.4683,1.4657,1.4674,1.4611,1.4615,1.4701,1.4718,1.4732,1.4742,1.4557,0,0,0,0,0,1.5221,1.5205,1.5116,1.5132,1.5112,1.5028,1.5011,1.4957,1.4905,1.4884,1.4825,1.4776,1.4747,1.473,1.4698,1.4715,1.4696,1.4731,1.4745,1.4757,1.4762,1.4769,1.4784,1.4625,1.4625,1.4625,0,0,1.5278,1.5221,1.5216,1.5156,1.5113,1.5099,1.5012,1.4999,1.4987,1.4882,1.4871,1.4826,1.4765,1.477,1.4769,1.4735,1.4802,1.4765,1.4776,1.4774,1.4777,1.4793,1.4806,1.4629,1.4628,1.4628,0,0,1.5376,1.5332,1.5341,1.5301,1.5239,1.5183,1.5186,1.5107,1.5074,1.5062,1.4983,1.4966,1.4919,1.4879,1.4853,1.4938,1.4879,1.493,1.5005,1.5013,1.5025,1.5036,1.5068,1.508,1.4935,1.4936,1.4936,0,1.5456,1.5431,1.5352,1.5345,1.5321,1.5227,1.5235,1.52,1.513,1.5115,1.5079,1.5019,1.497,1.4966,1.4987,1.4968,1.4968,1.4939,1.503,1.504,1.5049,1.5078,1.509,1.4942,1.4942,1.4941,1.494,0,1.5533,1.5517,1.5532,1.547,1.5447,1.5448,1.5368,1.5354,1.5302,1.5251,1.524,1.5179,1.5135,1.5129,1.5078,1.5118,1.5099,1.5048,1.4983,1.5072,1.5098,1.5108,1.4952,1.495,1.4948,1.4946,0,0,1.5704,1.56,1.5606,1.5578,1.5503,1.5489,1.5486,1.5444,1.5435,1.539,1.5385,1.5348,1.5301,1.5271,1.5214,1.5221,1.5295,1.5169,1.5166,1.5195,1.5336,1.5376,1.539,1.5255,1.5256,1.5258,1.5342,0,1.579,1.578,1.5709,1.5719,1.5704,1.5615,1.5612,1.5566,1.5518,1.5497,1.5443,1.5419,1.5358,1.534,1.5343,1.5285,1.5322,1.5278,1.5249,1.5249,1.5268,1.5403,1.5444,1.5526,1.5351,1.5352,1.5354,0,1.5888,1.5853,1.5863,1.579,1.5781,1.578,1.5737,1.5719,1.5664,1.5629,1.5597,1.5534,1.5525,1.5465,1.5451,1.5423,1.5406,1.5377,1.5378,1.5372,1.5307,1.5402,1.555,1.5563,1.5368,1.5367,1.5366,0,1.6014,1.5968,1.5968,1.5947,1.5862,1.5863,1.5828,1.5771,1.5751,1.5713,1.5699,1.566,1.5638,1.5609,1.5537,1.5499,1.5532,1.5465,1.5502,1.5504,1.5513,1.5513,1.5662,1.5502,1.5501,1.5501,1.5501,0,1.6118,1.6128,1.6024,1.6025,1.6033,1.5951,1.5961,1.5916,1.5867,1.5857,1.5776,1.5768,1.5673,1.5653,1.5597,1.5595,1.5585,1.5556,1.5541,1.5563,1.5568,1.5552,1.5544,1.5504,1.5504,1.5503,1.5502,0,1.626,1.6191,1.6185,1.6106,1.6087,1.6097,1.6028,1.6025,1.5972,1.596,1.5952,1.587,1.5843,1.5768,1.5721,1.5683,1.5698,1.5669,1.5717,1.5707,1.5749,1.5747,1.5893,1.5908,1.5739,1.574,1.5742,0,1.6331,1.6337,1.6259,1.6248,1.6216,1.6198,1.6178,1.6097,1.6079,1.602,1.6024,1.5991,1.5961,1.5922,1.5857,1.5821,1.5791,1.5845,1.5785,1.5808,1.5793,1.5794,1.5795,1.5858,1.586,1.5862,1.5864,0,1.6465,1.6432,1.6407,1.6371,1.635,1.6317,1.6279,1.6273,1.6183,1.6167,1.614,1.6117,1.6071,1.6039,1.5994,1.5955,1.5895,1.5883,1.589,1.5914,1.5942,1.5928,1.5753,1.588,1.5879,1.5877,1.5877,1.5876,1.6574,1.6576,1.6522,1.6498,1.6461,1.6429,1.6422,1.637,1.6347,1.6304,1.6258,1.6236,1.6182,1.6115,1.6082,1.6063,1.6031,1.604,1.6043,1.6047,1.6058,1.5945,1.6054,1.6054,1.6053,1.6052,1.6052,0,1.6705,1.6667,1.6645,1.6596,1.6577,1.6524,1.648,1.6467,1.645,1.6405,1.6378,1.6348,1.6317,1.6251,1.6214,1.6212,1.6184,1.6205,1.6205,1.6197,1.6088,1.6086,1.6229,1.6229,1.6229,1.6229,1.6229,1.6229,1.6771,1.6772,1.6732,1.6714,1.6674,1.6655,1.6634,1.6603,1.6568,1.6538,1.6514,1.6471,1.6418,1.6377,1.6347,1.6328,1.6319,1.635,1.6322,1.6222,1.6205,1.6189,1.6187,1.6348,1.6348,1.6433,1.6434,1.6434]},{"header":{"parameterUnit":"m.s-1","parameterCategory":1,"la1":30.2991,"la2":30.254,"lo1":-89.0895,"lo2":-89.0444,"dy":0.0017,"dx":0.0017,"nx":28,"ny":28,"refTime":"2023-07-17T21:00:00:Z","depth":0,"parameterNumber":3,"parameterNumberName":"V-component_of_WINDS"},"data":[0,0,0,0,0,0,0,0,0,0,0,0,0,0,0,0,0,0,0,0,0,0,0,0,0,0,0,0,0,0,0,0,0,0,0,0,0,0,0,0,0,0,0,0,0,0,0,0,0,0,0,0,0,0,0,0,0,0,-1.0412,-1.0412,0,-1.0374,-1.0374,-1.0373,-1.0336,-1.0336,-1.0335,-1.0335,-1.0293,-1.0292,-1.0291,0,0,0,0,0,0,0,0,0,0,0,0,0,-1.0453,-1.0453,-1.0413,-1.0412,-1.0412,-1.0374,-1.0374,-1.0373,-1.0336,-1.0336,-1.0335,-1.0335,-1.0293,-1.0292,-1.0291,0,0,0,0,0,0,0,0,0,0,0,0,0,-1.0427,-1.0453,-1.0413,-1.0389,-1.0386,-1.0374,-1.0373,-1.0373,-1.0336,-1.0336,-1.0335,-1.0334,-1.0293,-1.0292,-1.0291,-1.0299,0,0,-1.0288,-1.0288,0,0,0,0,0,0,0,0,-1.0429,-1.0426,-1.0393,-1.039,-1.0388,-1.0359,-1.0372,-1.0348,-1.0337,-1.0355,-1.0335,-1.0334,-1.0315,-1.0312,-1.0307,-1.0297,-1.0295,-1.0288,-1.0287,-1.0287,-1.0287,0,0,0,0,0,0,0,-1.0431,-1.0427,-1.0397,-1.0392,-1.0389,-1.038,-1.0375,-1.0368,-1.034,-1.0354,-1.0351,-1.0347,-1.0314,-1.0308,-1.0305,-1.0294,-1.0288,-1.0287,-1.0286,-1.0286,-1.029,-1.0291,0,0,0,0,0,0,-1.0436,-1.0429,-1.0398,-1.0396,-1.0407,-1.038,-1.0375,-1.0369,-1.034,-1.0334,-1.0348,-1.0345,-1.031,-1.0307,-1.0304,-1.0311,-1.0287,-1.0286,-1.0285,-1.0289,-1.029,-1.0291,0,0,0,0,0,0,-1.0437,-1.0434,-1.04,-1.0412,-1.0407,-1.038,-1.0374,-1.0369,-1.0363,-1.0335,-1.033,-1.0347,-1.0309,-1.0305,-1.0301,-1.0309,-1.0285,-1.0285,-1.0288,-1.0289,-1.029,-1.0325,0,0,0,0,0,0,-1.0439,-1.0435,-1.0437,-1.0412,-1.0406,-1.0398,-1.0374,-1.0368,-1.0361,-1.0358,-1.0333,-1.0328,-1.0308,-1.0302,-1.03,-1.0307,-1.0284,-1.0287,-1.0289,-1.029,-1.0323,-1.0327,-1.0331,0,0,0,0,0,-1.044,-1.0448,-1.0437,-1.0434,-1.0409,-1.0398,-1.0395,-1.0373,-1.0362,-1.0364,-1.0347,-1.0329,-1.0309,-1.0302,-1.0299,-1.0306,-1.0287,-1.0288,-1.029,-1.0321,-1.0327,-1.0331,0,0,0,0,0,0,-1.0473,-1.0444,-1.0432,-1.0432,-1.0418,-1.0392,-1.0394,-1.0379,-1.0367,-1.0365,-1.0337,-1.0332,-1.0331,-1.0318,-1.0311,-1.0312,-1.0295,-1.0296,-1.0321,-1.0325,-1.0329,-1.0332,-1.0283,0,0,0,0,0,-1.048,-1.0475,-1.0449,-1.0451,-1.0445,-1.0421,-1.0416,-1.0401,-1.0385,-1.0378,-1.036,-1.0345,-1.0336,-1.033,-1.032,-1.0322,-1.0316,-1.0325,-1.0329,-1.0333,-1.0333,-1.0335,-1.0339,-1.0296,-1.0296,-1.0296,0,0,-1.0495,-1.0478,-1.0476,-1.0458,-1.0445,-1.044,-1.0416,-1.0411,-1.0407,-1.0377,-1.0372,-1.0359,-1.034,-1.034,-1.0338,-1.0329,-1.0344,-1.0335,-1.0338,-1.0336,-1.0337,-1.0341,-1.0344,-1.0297,-1.0297,-1.0297,0,0,-1.0518,-1.0505,-1.0506,-1.0495,-1.0477,-1.0461,-1.0462,-1.0439,-1.0429,-1.0424,-1.0402,-1.0397,-1.0381,-1.0369,-1.036,-1.0383,-1.0365,-1.038,-1.04,-1.0401,-1.0405,-1.0407,-1.0415,-1.0419,-1.0381,-1.0381,-1.0381,0,-1.0538,-1.0529,-1.0508,-1.0505,-1.0498,-1.0473,-1.0473,-1.0463,-1.0442,-1.0438,-1.0428,-1.0409,-1.0394,-1.0391,-1.0397,-1.0391,-1.039,-1.0382,-1.0406,-1.0409,-1.0411,-1.0418,-1.0421,-1.0383,-1.0383,-1.0383,-1.0383,0,-1.0555,-1.055,-1.0552,-1.0535,-1.0528,-1.0527,-1.0505,-1.0501,-1.0487,-1.0472,-1.0468,-1.0451,-1.0437,-1.0435,-1.0421,-1.043,-1.0425,-1.0411,-1.0393,-1.0417,-1.0424,-1.0426,-1.0386,-1.0385,-1.0385,-1.0384,0,0,-1.0595,-1.0568,-1.0569,-1.0562,-1.0541,-1.0536,-1.0535,-1.0522,-1.0519,-1.0507,-1.0504,-1.0493,-1.0481,-1.0471,-1.0456,-1.0457,-1.0477,-1.0443,-1.0442,-1.045,-1.0487,-1.0497,-1.05,-1.0466,-1.0466,-1.0467,-1.0488,0,-1.0615,-1.0611,-1.0593,-1.0593,-1.0588,-1.0566,-1.0564,-1.0552,-1.0539,-1.0533,-1.0518,-1.0511,-1.0495,-1.049,-1.049,-1.0474,-1.0484,-1.0473,-1.0463,-1.0463,-1.0468,-1.0503,-1.0513,-1.0534,-1.049,-1.0491,-1.0491,0,-1.0637,-1.0627,-1.0628,-1.061,-1.0607,-1.0606,-1.0594,-1.0589,-1.0574,-1.0565,-1.0556,-1.054,-1.0537,-1.0521,-1.0517,-1.051,-1.0505,-1.0497,-1.0498,-1.0495,-1.0478,-1.0501,-1.054,-1.0543,-1.0495,-1.0495,-1.0494,0,-1.0666,-1.0654,-1.0653,-1.0647,-1.0625,-1.0625,-1.0616,-1.0601,-1.0596,-1.0586,-1.0582,-1.0571,-1.0565,-1.0557,-1.0539,-1.0529,-1.0537,-1.0519,-1.0528,-1.0529,-1.0529,-1.0529,-1.0568,-1.0528,-1.0528,-1.0528,-1.0528,0,-1.069,-1.0691,-1.0666,-1.0665,-1.0666,-1.0646,-1.0648,-1.0636,-1.0624,-1.0621,-1.0601,-1.0598,-1.0574,-1.0568,-1.0554,-1.0553,-1.055,-1.0542,-1.0538,-1.0544,-1.0545,-1.0539,-1.0537,-1.0529,-1.0529,-1.0529,-1.0528,0,-1.0722,-1.0705,-1.0703,-1.0683,-1.0679,-1.068,-1.0663,-1.0662,-1.0649,-1.0646,-1.0644,-1.0623,-1.0616,-1.0597,-1.0585,-1.0575,-1.0578,-1.0571,-1.0583,-1.058,-1.059,-1.0589,-1.0625,-1.0629,-1.0588,-1.0589,-1.0589,0,-1.0737,-1.0738,-1.0719,-1.0716,-1.0708,-1.0704,-1.0698,-1.0679,-1.0675,-1.066,-1.066,-1.0652,-1.0644,-1.0634,-1.0618,-1.0609,-1.0601,-1.0615,-1.0599,-1.0605,-1.0601,-1.0601,-1.0601,-1.0617,-1.0618,-1.0618,-1.0619,0,-1.0766,-1.0758,-1.0752,-1.0744,-1.0739,-1.0731,-1.0721,-1.072,-1.0699,-1.0695,-1.0688,-1.0682,-1.0671,-1.0663,-1.0652,-1.0642,-1.0627,-1.0624,-1.0626,-1.063,-1.0637,-1.0634,-1.0591,-1.0623,-1.0622,-1.0622,-1.0622,-1.0622,-1.079,-1.079,-1.0777,-1.0771,-1.0763,-1.0756,-1.0754,-1.0742,-1.0736,-1.0726,-1.0715,-1.071,-1.0697,-1.0681,-1.0673,-1.0669,-1.066,-1.0663,-1.0663,-1.0664,-1.0666,-1.064,-1.0667,-1.0666,-1.0666,-1.0666,-1.0666,0,-1.0817,-1.0809,-1.0804,-1.0793,-1.0789,-1.0777,-1.0767,-1.0763,-1.0759,-1.075,-1.0743,-1.0736,-1.0729,-1.0714,-1.0705,-1.0705,-1.0698,-1.0703,-1.0702,-1.0701,-1.0674,-1.0674,-1.0709,-1.0709,-1.0709,-1.0709,-1.0709,-1.0709,-1.0831,-1.0831,-1.0822,-1.0818,-1.081,-1.0805,-1.0801,-1.0794,-1.0786,-1.078,-1.0774,-1.0765,-1.0753,-1.0744,-1.0737,-1.0733,-1.073,-1.0738,-1.0731,-1.0706,-1.0702,-1.0698,-1.0698,-1.0738,-1.0738,-1.0758,-1.0758,-1.0758]}]]